Location: Stony Creek
(40.9500°S, 175.8500°E)
Time: 08:31:55
(UTC+00:00)

Cosmos 1727 Rocket - Pass Details

Date: 15 May 2026
Orbit: 959 x 997 km, 82.9° (Epoch: 10 June)

Event Time Altitude Azimuth Distance (km) Brightness Sun altitude
Rises 17:42:44 0° 186° (S) 3,723 6.9 -17.9°
Reaches altitude 10° 17:45:16 10° 184° (S) 2,773 6.2 -17.4°
Maximum altitude 17:51:40 76° 98° (E) 1,034 4.2 -16.2°
Drops below altitude 10° 17:58:00 10° 12° (NNE) 2,760 6.7 -15.1°
Sets 18:00:32 0° 10° (N) 3,704 7.3 -14.6°
